Location: Blandford
(50.8667°N, 2.1667°W)
Time: 23:46:45
(UTC+00:00)

STARLINK-1269 - Pass Details

Date: 09 April 2020
Orbit: 549 x 550 km, 53.0° (Epoch: 24 May)

Event Time Altitude Azimuth Distance (km) Brightness Sun altitude
Rises 19:38:03 0° 286° (WNW) 2,724 9.6 -7.3°
Reaches altitude 10° 19:40:18 10° 288° (WNW) 1,829 8.0 -7.6°
Maximum altitude 19:44:28 83° 16° (NNE) 560 3.7 -8.2°
Enters shadow 19:48:24 11° 105° (ESE) 1,737 5.5 -8.8°
